Time,TemperatureF,DewpointF,PressureIn,WindDirection,WindDirectionDegrees,WindSpeedMPH,WindSpeedGustMPH,Humidity,HourlyPrecipIn,Conditions,Clouds,dailyrainin,SoftwareType,DateUTC
2013-04-16 00:01:00,51.0,42.0,29.88,WNW,292,0.0,0.0,72,0.00,,,0.00,,2013-04-16 07:01:00,
2013-04-16 00:12:00,51.0,42.0,29.88,WNW,292,0.0,0.0,72,0.00,,,0.00,,2013-04-16 07:12:00,
2013-04-16 00:21:00,51.0,42.0,29.88,WNW,292,0.0,0.0,72,0.00,,,0.00,,2013-04-16 07:21:00,
2013-04-16 00:31:00,51.0,42.0,29.88,WNW,292,0.0,0.0,72,0.00,,,0.00,,2013-04-16 07:31:00,
2013-04-16 00:53:00,50.0,42.0,29.88,NE,55,3.0,3.0,74,0.00,,,0.00,,2013-04-16 07:53:00,
2013-04-16 01:02:00,50.0,42.0,29.88,NE,55,3.0,3.0,74,0.00,,,0.00,,2013-04-16 08:02:00,
2013-04-16 01:11:00,50.0,42.0,29.88,NE,55,3.0,3.0,74,0.00,,,0.00,,2013-04-16 08:11:00,
2013-04-16 01:21:00,50.0,42.0,29.88,NE,55,3.0,3.0,74,0.00,,,0.00,,2013-04-16 08:21:00,
2013-04-16 01:31:00,50.0,42.0,29.88,NE,55,3.0,3.0,74,0.00,,,0.00,,2013-04-16 08:31:00,
2013-04-16 01:52:00,48.0,41.0,29.87,SE,145,0.0,0.0,78,0.00,,,0.00,,2013-04-16 08:52:00,
2013-04-16 02:02:00,48.0,41.0,29.87,SE,145,0.0,0.0,78,0.00,,,0.00,,2013-04-16 09:02:00,
2013-04-16 02:11:00,48.0,41.0,29.87,SE,145,0.0,0.0,78,0.00,,,0.00,,2013-04-16 09:11:00,
2013-04-16 02:21:00,47.0,41.0,29.87,ENE,74,0.0,0.0,79,0.00,,,0.00,,2013-04-16 09:21:00,
2013-04-16 02:32:00,47.0,41.0,29.87,ENE,74,0.0,0.0,79,0.00,,,0.00,,2013-04-16 09:32:00,
2013-04-16 02:43:00,47.0,41.0,29.87,ENE,74,0.0,0.0,79,0.00,,,0.00,,2013-04-16 09:43:00,
2013-04-16 02:52:00,47.0,41.0,29.87,ENE,74,0.0,0.0,79,0.00,,,0.00,,2013-04-16 09:52:00,
2013-04-16 03:02:00,47.0,41.0,29.87,ENE,74,0.0,0.0,79,0.00,,,0.00,,2013-04-16 10:02:00,
2013-04-16 05:52:00,45.0,40.0,29.89,NNE,32,0.0,0.0,84,0.00,,,0.00,,2013-04-16 12:52:00,
2013-04-16 06:02:00,45.0,40.0,29.89,NNE,32,0.0,0.0,84,0.00,,,0.00,,2013-04-16 13:02:00,
2013-04-16 06:12:00,45.0,40.0,29.89,NNE,32,0.0,0.0,84,0.00,,,0.00,,2013-04-16 13:12:00,
2013-04-16 06:22:00,45.0,40.0,29.89,NNE,32,0.0,0.0,84,0.00,,,0.00,,2013-04-16 13:22:00,
2013-04-16 06:31:00,45.0,40.0,29.89,NNE,32,0.0,0.0,84,0.00,,,0.00,,2013-04-16 13:31:00,
2013-04-16 06:52:00,45.0,40.0,29.89,NNE,32,0.0,0.0,83,0.00,,,0.00,,2013-04-16 13:52:00,
2013-04-16 07:02:00,45.0,40.0,29.89,NNE,32,0.0,0.0,83,0.00,,,0.00,,2013-04-16 14:02:00,
2013-04-16 07:12:00,45.0,40.0,29.89,NNE,32,0.0,0.0,83,0.00,,,0.00,,2013-04-16 14:12:00,
2013-04-16 07:22:00,45.0,40.0,29.91,NNE,32,1.0,1.0,84,0.00,,,0.00,,2013-04-16 14:22:00,
2013-04-16 07:32:00,45.0,40.0,29.91,NNE,32,1.0,1.0,84,0.00,,,0.00,,2013-04-16 14:32:00,
2013-04-16 07:42:00,45.0,40.0,29.91,NNE,32,1.0,1.0,84,0.00,,,0.00,,2013-04-16 14:42:00,
2013-04-16 07:52:00,45.0,40.0,29.91,NNE,32,1.0,1.0,84,0.00,,,0.00,,2013-04-16 14:52:00,
2013-04-16 08:01:00,45.0,40.0,29.91,NNE,32,1.0,1.0,84,0.00,,,0.00,,2013-04-16 15:01:00,
2013-04-16 09:23:00,55.0,42.0,29.94,ENE,78,2.0,2.0,62,0.00,,,0.00,,2013-04-16 16:23:00,
2013-04-16 09:33:00,55.0,42.0,29.94,ENE,78,2.0,2.0,62,0.00,,,0.00,,2013-04-16 16:33:00,
2013-04-16 09:42:00,55.0,42.0,29.94,ENE,78,2.0,2.0,62,0.00,,,0.00,,2013-04-16 16:42:00,
2013-04-16 09:52:00,55.0,42.0,29.94,ENE,78,2.0,2.0,62,0.00,,,0.00,,2013-04-16 16:52:00,
2013-04-16 10:02:00,55.0,42.0,29.94,ENE,78,2.0,2.0,62,0.00,,,0.00,,2013-04-16 17:02:00,
2013-04-16 10:22:00,58.0,36.0,29.96,WSW,253,4.0,4.0,44,0.00,,,0.00,,2013-04-16 17:22:00,
2013-04-16 10:33:00,58.0,36.0,29.96,WSW,253,4.0,4.0,44,0.00,,,0.00,,2013-04-16 17:33:00,
2013-04-16 10:43:00,58.0,36.0,29.96,WSW,253,4.0,4.0,44,0.00,,,0.00,,2013-04-16 17:43:00,
2013-04-16 10:53:00,59.0,37.0,29.97,WSW,243,5.0,5.0,44,0.00,,,0.00,,2013-04-16 17:53:00,
2013-04-16 11:01:00,59.0,37.0,29.97,WSW,243,5.0,5.0,44,0.00,,,0.00,,2013-04-16 18:01:00,
2013-04-16 11:12:00,59.0,37.0,29.97,WSW,243,5.0,5.0,44,0.00,,,0.00,,2013-04-16 18:12:00,
2013-04-16 11:22:00,59.0,37.0,29.97,WSW,243,5.0,5.0,44,0.00,,,0.00,,2013-04-16 18:22:00,
2013-04-16 11:31:00,60.0,39.0,29.97,WNW,291,10.0,10.0,45,0.00,,,0.00,,2013-04-16 18:31:00,
2013-04-16 11:43:00,60.0,39.0,29.97,WNW,291,10.0,10.0,45,0.00,,,0.00,,2013-04-16 18:43:00,
2013-04-16 11:52:00,60.0,39.0,29.97,West,273,4.0,4.0,46,0.00,,,0.00,,2013-04-16 18:52:00,
2013-04-16 12:02:00,60.0,39.0,29.97,West,273,4.0,4.0,46,0.00,,,0.00,,2013-04-16 19:02:00,
2013-04-16 12:12:00,60.0,39.0,29.97,West,273,4.0,4.0,46,0.00,,,0.00,,2013-04-16 19:12:00,
2013-04-16 12:21:00,60.0,39.0,29.97,West,273,4.0,4.0,46,0.00,,,0.00,,2013-04-16 19:21:00,
2013-04-16 12:31:00,60.0,39.0,29.97,West,273,4.0,4.0,46,0.00,,,0.00,,2013-04-16 19:31:00,
2013-04-16 12:52:00,61.0,40.0,29.96,WNW,293,9.0,9.0,45,0.00,,,0.00,,2013-04-16 19:52:00,
2013-04-16 13:02:00,61.0,40.0,29.96,WNW,293,9.0,9.0,45,0.00,,,0.00,,2013-04-16 20:02:00,
2013-04-16 13:12:00,61.0,40.0,29.96,WNW,293,9.0,9.0,45,0.00,,,0.00,,2013-04-16 20:12:00,
2013-04-16 13:22:00,61.0,40.0,29.96,WNW,293,9.0,9.0,45,0.00,,,0.00,,2013-04-16 20:22:00,
2013-04-16 13:31:00,61.0,40.0,29.96,WNW,293,9.0,9.0,45,0.00,,,0.00,,2013-04-16 20:31:00,
2013-04-16 13:52:00,61.0,40.0,29.95,West,278,11.0,11.0,46,0.00,,,0.00,,2013-04-16 20:52:00,
2013-04-16 14:02:00,61.0,40.0,29.95,West,278,11.0,11.0,46,0.00,,,0.00,,2013-04-16 21:02:00,
2013-04-16 14:12:00,61.0,40.0,29.95,West,278,11.0,11.0,46,0.00,,,0.00,,2013-04-16 21:12:00,
2013-04-16 14:21:00,62.0,43.0,29.95,WSW,237,5.0,5.0,49,0.00,,,0.00,,2013-04-16 21:21:00,
2013-04-16 14:32:00,62.0,43.0,29.95,WSW,237,5.0,5.0,49,0.00,,,0.00,,2013-04-16 21:32:00,
2013-04-16 14:43:00,62.0,43.0,29.95,WSW,237,5.0,5.0,49,0.00,,,0.00,,2013-04-16 21:43:00,
2013-04-16 14:53:00,61.0,44.0,29.94,SW,234,12.0,12.0,53,0.00,,,0.00,,2013-04-16 21:53:00,
2013-04-16 15:02:00,61.0,44.0,29.94,SW,234,12.0,12.0,53,0.00,,,0.00,,2013-04-16 22:02:00,
2013-04-16 15:12:00,61.0,44.0,29.94,SW,234,12.0,12.0,53,0.00,,,0.00,,2013-04-16 22:12:00,
2013-04-16 15:22:00,61.0,44.0,29.94,SW,234,12.0,12.0,53,0.00,,,0.00,,2013-04-16 22:22:00,
2013-04-16 15:32:00,61.0,44.0,29.94,SW,234,12.0,12.0,53,0.00,,,0.00,,2013-04-16 22:32:00,
2013-04-16 15:52:00,62.0,45.0,29.93,West,273,6.0,6.0,53,0.00,,,0.00,,2013-04-16 22:52:00,
2013-04-16 16:02:00,62.0,45.0,29.93,West,273,6.0,6.0,53,0.00,,,0.00,,2013-04-16 23:02:00,
2013-04-16 16:12:00,62.0,45.0,29.93,West,273,6.0,6.0,53,0.00,,,0.00,,2013-04-16 23:12:00,
2013-04-16 16:21:00,62.0,45.0,29.93,West,273,6.0,6.0,53,0.00,,,0.00,,2013-04-16 23:21:00,
2013-04-16 16:31:00,62.0,45.0,29.93,West,273,6.0,6.0,53,0.00,,,0.00,,2013-04-16 23:31:00,
2013-04-16 16:52:00,60.0,45.0,29.92,West,261,9.0,9.0,57,0.00,,,0.00,,2013-04-16 23:52:00,
2013-04-16 17:02:00,60.0,45.0,29.92,West,261,9.0,9.0,57,0.00,,,0.00,,2013-04-17 00:02:00,
2013-04-16 17:12:00,60.0,45.0,29.92,West,261,9.0,9.0,57,0.00,,,0.00,,2013-04-17 00:12:00,
2013-04-16 17:22:00,61.0,45.0,29.91,West,265,11.0,11.0,55,0.00,,,0.00,,2013-04-17 00:22:00,
2013-04-16 17:32:00,61.0,45.0,29.91,West,265,11.0,11.0,55,0.00,,,0.00,,2013-04-17 00:32:00,
2013-04-16 17:42:00,61.0,45.0,29.91,West,265,11.0,11.0,55,0.00,,,0.00,,2013-04-17 00:42:00,
2013-04-16 17:52:00,61.0,45.0,29.91,West,273,9.0,9.0,56,0.00,,,0.00,,2013-04-17 00:52:00,
2013-04-16 18:01:00,61.0,45.0,29.91,West,273,9.0,9.0,56,0.00,,,0.00,,2013-04-17 01:01:00,
2013-04-16 18:12:00,61.0,45.0,29.91,West,273,9.0,9.0,56,0.00,,,0.00,,2013-04-17 01:12:00,
2013-04-16 18:21:00,61.0,45.0,29.91,WSW,245,17.0,17.0,55,0.00,,,0.00,,2013-04-17 01:21:00,
2013-04-16 18:32:00,61.0,45.0,29.91,WSW,245,17.0,17.0,55,0.00,,,0.00,,2013-04-17 01:32:00,
2013-04-16 18:42:00,61.0,45.0,29.91,WSW,245,17.0,17.0,55,0.00,,,0.00,,2013-04-17 01:42:00,
2013-04-16 18:52:00,60.0,43.0,29.90,WSW,248,6.0,6.0,54,0.00,,,0.00,,2013-04-17 01:52:00,
2013-04-16 19:01:00,60.0,43.0,29.90,WSW,248,6.0,6.0,54,0.00,,,0.00,,2013-04-17 02:01:00,
2013-04-16 19:12:00,60.0,43.0,29.90,WSW,248,6.0,6.0,54,0.00,,,0.00,,2013-04-17 02:12:00,
2013-04-16 19:21:00,60.0,43.0,29.90,WSW,248,6.0,6.0,54,0.00,,,0.00,,2013-04-17 02:21:00,
2013-04-16 19:31:00,60.0,43.0,29.90,WSW,248,6.0,6.0,54,0.00,,,0.00,,2013-04-17 02:31:00,
2013-04-16 19:52:00,58.0,42.0,29.91,West,273,11.0,11.0,55,0.00,,,0.00,,2013-04-17 02:52:00,
2013-04-16 20:02:00,58.0,42.0,29.91,West,273,11.0,11.0,55,0.00,,,0.00,,2013-04-17 03:02:00,
2013-04-16 20:12:00,58.0,42.0,29.91,West,273,11.0,11.0,55,0.00,,,0.00,,2013-04-17 03:12:00,
2013-04-16 20:21:00,58.0,43.0,29.93,West,273,2.0,2.0,57,0.00,,,0.00,,2013-04-17 03:21:00,
2013-04-16 20:32:00,58.0,43.0,29.93,West,273,2.0,2.0,57,0.00,,,0.00,,2013-04-17 03:32:00,
2013-04-16 20:42:00,58.0,43.0,29.93,West,273,2.0,2.0,57,0.00,,,0.00,,2013-04-17 03:42:00,
2013-04-16 20:53:00,58.0,43.0,29.93,West,273,2.0,2.0,57,0.00,,,0.00,,2013-04-17 03:53:00,
2013-04-16 21:02:00,58.0,43.0,29.93,West,273,2.0,2.0,57,0.00,,,0.00,,2013-04-17 04:02:00,
2013-04-16 22:22:00,53.0,42.0,29.99,East,91,0.0,0.0,67,0.00,,,0.00,,2013-04-17 05:22:00,
2013-04-16 22:32:00,53.0,42.0,29.99,East,91,0.0,0.0,67,0.00,,,0.00,,2013-04-17 05:32:00,
2013-04-16 22:43:00,53.0,42.0,29.99,East,91,0.0,0.0,67,0.00,,,0.00,,2013-04-17 05:43:00,
2013-04-16 22:52:00,53.0,42.0,29.99,East,91,0.0,0.0,67,0.00,,,0.00,,2013-04-17 05:52:00,
2013-04-16 23:01:00,53.0,42.0,29.99,East,91,0.0,0.0,67,0.00,,,0.00,,2013-04-17 06:01:00,
2013-04-16 23:52:00,51.0,42.0,30.01,East,91,2.0,2.0,72,0.00,,,0.00,,2013-04-17 06:52:00,